Location: Home AU
(51.1382°N, 13.5726°E)
Time: 13:27:47
(UTC+01:00)

ISS - Pass Details

Date: 06 January 2018
Orbit: 402 x 407 km, 51.6° (Epoch: 22 January)

Event Time Altitude Azimuth Distance (km) Brightness Sun altitude
Exits shadow 06:46:06 21° 279° (W) 987 -2.5 -12.2°
Maximum altitude 06:48:12 87° 4° (N) 413 -3.9 -11.9°
Drops below altitude 10° 06:51:30 10° 98° (E) 1,470 0.4 -11.4°
Sets 06:53:35 0° 99° (E) 2,331 1.8 -11.1°
